Regional Weather Roundup
Issued by NWS

Home | Current Version | Previous Version | Graphics & Text | Print | Product List | Glossary On
Versions: 1 2 3 4 5 6 7 8 9 10 11 12 13 14 15 16 17 18 19 20 21 22 23 24 25 26 27 28 29 30 31 32 33 34 35 36 37 38 39 40 41 42 43 44 45 46 47 48 49 50
000
ASUS43 KLMK 300502
RWRKY
KENTUCKY REGIONAL WEATHER ROUNDUP
NATIONAL WEATHER SERVICE LOUISVILLE KY
100 AM EDT THU JUL 30 2015

NOTE "FAIR" INDICATES FEW OR NO CLOUDS BELOW 12,000 FEET
WITH NO SIGNIFICANT WEATHER AND/OR OBSTRUCTIONS TO VISIBILITY.

KYZ001>023-026-027-061>063-070>075-300600-
WESTERN AND SOUTH CENTRAL KENTUCKY

CITY           SKY/WX    TMP DP  RH WIND       PRES   REMARKS
PADUCAH        PTCLDY    80  75  84 N7        30.05R
HENDERSON      MOCLDY    79  72  78 N7        30.04R
OWENSBORO      CLOUDY    81  73  76 N7        30.04R
HOPKINSVILLE   MOCLDY    74  71  89 CALM      30.05R
BOWLING GREEN  CLOUDY    76  71  85 W3        30.04S
GLASGOW        NOT AVBL
$$

KYZ024-025-028>034-038-045-046-053-300600-
NORTH CENTRAL KENTUCKY

CITY           SKY/WX    TMP DP  RH WIND       PRES   REMARKS
LOUISVILLE/SDF CLOUDY    78  75  90 SW6       30.01S
LOUISVILLE/LOU CLOUDY    77  72  84 CALM      30.02S
FORT KNOX      CLOUDY    74  72  95 S3        30.03R
$$

KYZ035>037-039>044-047>052-055>060-089>105-300600-
NORTHEAST KENTUCKY

CITY           SKY/WX    TMP DP  RH WIND       PRES   REMARKS
LEXINGTON      CLOUDY    72  70  93 W3        30.02F
COVINGTON      CLOUDY    75  73  93 W6        30.00F
FRANKFORT      CLOUDY    72  70  93 SW3       30.01F
$$

KYZ054-064>069-076>088-106>120-300600-
SOUTHEAST KENTUCKY

CITY           SKY/WX    TMP DP  RH WIND       PRES   REMARKS
JACKSON        MOCLDY    75  72  90 W3        30.03S
LONDON         MOCLDY    76  65  68 W3        30.03F
SOMERSET       NOT AVBL
MIDDLESBORO    MOCLDY    76  73  91 CALM      30.03S
MONTICELLO     CLOUDY    72  72 100 W8        30.06F
$$




USA.gov is the U.S. government's official web portal to all federal, state and local government web resources and services.